Year,Month,Day,Hour,Minute,Value (Times are PST for windspeed in km/hr)
2008,03,04,00,00,7.90
2008,03,04,00,01,7.90
2008,03,04,00,02,7.80
2008,03,04,00,03,8.70
2008,03,04,00,04,4.20
2008,03,04,00,05,4.90
2008,03,04,00,06,4.20
2008,03,04,00,07,6.70
2008,03,04,00,08,3.40
2008,03,04,00,09,5.30
2008,03,04,00,10,8.00
2008,03,04,00,11,8.70
2008,03,04,00,12,9.10
2008,03,04,00,13,7.30
2008,03,04,00,14,7.00
2008,03,04,00,15,5.70
2008,03,04,00,16,7.70
2008,03,04,00,17,6.70
2008,03,04,00,18,8.30
2008,03,04,00,19,10.00
2008,03,04,00,20,12.80
2008,03,04,00,21,9.30
2008,03,04,00,22,8.90
2008,03,04,00,23,6.60
2008,03,04,00,24,6.90
2008,03,04,00,25,4.40
2008,03,04,00,26,7.40
2008,03,04,00,27,5.50
2008,03,04,00,28,5.20
2008,03,04,00,29,7.00
2008,03,04,00,30,6.40
2008,03,04,00,31,5.40
2008,03,04,00,32,6.50
2008,03,04,00,33,6.20
2008,03,04,00,34,5.40
2008,03,04,00,35,6.10
2008,03,04,00,36,6.50
2008,03,04,00,37,5.90
2008,03,04,00,38,5.60
2008,03,04,00,39,6.40
2008,03,04,00,40,4.50
2008,03,04,00,41,5.40
2008,03,04,00,42,7.60
2008,03,04,00,43,8.10
2008,03,04,00,44,10.60
2008,03,04,00,45,7.50
2008,03,04,00,46,7.90
2008,03,04,00,47,7.50
2008,03,04,00,48,8.20
2008,03,04,00,49,7.70
2008,03,04,00,50,7.70
2008,03,04,00,51,9.30
2008,03,04,00,52,7.30
2008,03,04,00,53,5.90
2008,03,04,00,54,4.70
2008,03,04,00,55,4.40
2008,03,04,00,56,4.70
2008,03,04,00,57,6.90
2008,03,04,00,58,6.40
2008,03,04,00,59,5.30
2008,03,04,01,00,6.80
2008,03,04,01,01,4.30
2008,03,04,01,02,5.40
2008,03,04,01,03,5.50
2008,03,04,01,04,7.40
2008,03,04,01,05,3.70
2008,03,04,01,06,4.70
2008,03,04,01,07,5.90
2008,03,04,01,08,5.90
2008,03,04,01,09,4.30
2008,03,04,01,10,1.60
2008,03,04,01,11,1.60
2008,03,04,01,12,4.90
2008,03,04,01,13,3.60
2008,03,04,01,14,4.60
2008,03,04,01,15,3.70
2008,03,04,01,16,4.70
2008,03,04,01,17,3.80
2008,03,04,01,18,3.60
2008,03,04,01,19,3.10
2008,03,04,01,20,4.20
2008,03,04,01,21,5.50
2008,03,04,01,22,6.00
2008,03,04,01,23,6.00
2008,03,04,01,24,6.00
2008,03,04,01,25,6.10
2008,03,04,01,26,6.00
2008,03,04,01,27,3.10
2008,03,04,01,28,3.00
2008,03,04,01,29,2.70
2008,03,04,01,30,4.70
2008,03,04,01,31,2.70
2008,03,04,01,32,2.80
2008,03,04,01,33,4.50
2008,03,04,01,34,4.70
2008,03,04,01,35,2.00
2008,03,04,01,36,3.10
2008,03,04,01,37,0.80
2008,03,04,01,38,2.60
2008,03,04,01,39,3.70
2008,03,04,01,40,1.50
2008,03,04,01,41,0.30
2008,03,04,01,42,2.60
2008,03,04,01,43,2.00
2008,03,04,01,44,2.70
2008,03,04,01,45,3.10
2008,03,04,01,46,2.60
2008,03,04,01,47,2.10
2008,03,04,01,48,2.70
2008,03,04,01,49,4.60
2008,03,04,01,50,3.40
2008,03,04,01,51,1.60
2008,03,04,01,52,1.80
2008,03,04,01,53,5.20
2008,03,04,01,54,5.40
2008,03,04,01,55,5.30
2008,03,04,01,56,5.30
2008,03,04,01,57,4.70
2008,03,04,01,58,5.70
2008,03,04,01,59,3.70
2008,03,04,02,00,2.70
2008,03,04,02,01,2.20
2008,03,04,02,02,1.10
2008,03,04,02,03,2.10
2008,03,04,02,04,1.40
2008,03,04,02,05,2.20
2008,03,04,02,06,3.10
2008,03,04,02,07,1.80
2008,03,04,02,08,0.40
2008,03,04,02,09,0.20
2008,03,04,02,10,1.70
2008,03,04,02,11,0.10
2008,03,04,02,12,1.10
2008,03,04,02,13,0.50
2008,03,04,02,14,1.20
2008,03,04,02,15,4.10
2008,03,04,02,16,1.80
2008,03,04,02,17,2.30
2008,03,04,02,18,3.50
2008,03,04,02,19,3.10
2008,03,04,02,20,1.70
2008,03,04,02,21,4.90
2008,03,04,02,22,5.60
2008,03,04,02,23,6.10
2008,03,04,02,24,5.30
2008,03,04,02,25,6.00
2008,03,04,02,26,5.50
2008,03,04,02,27,2.90
2008,03,04,02,28,3.40
2008,03,04,02,29,4.30
2008,03,04,02,30,4.00
2008,03,04,02,31,4.80
2008,03,04,02,32,8.00
2008,03,04,02,33,9.50
2008,03,04,02,34,8.70
2008,03,04,02,35,4.70
2008,03,04,02,36,6.00
2008,03,04,02,37,8.00
2008,03,04,02,38,6.90
2008,03,04,02,39,5.90
2008,03,04,02,40,8.20
2008,03,04,02,41,5.80
2008,03,04,02,42,5.60
2008,03,04,02,43,8.60
2008,03,04,02,44,10.50
2008,03,04,02,45,8.60
2008,03,04,02,46,7.60
2008,03,04,02,47,7.90
2008,03,04,02,48,5.90
2008,03,04,02,49,6.90
2008,03,04,02,50,6.00
2008,03,04,02,51,6.20
2008,03,04,02,52,7.50
2008,03,04,02,53,6.80
2008,03,04,02,54,7.80
2008,03,04,02,55,7.20
2008,03,04,02,56,8.10
2008,03,04,02,57,6.00
2008,03,04,02,58,6.80
2008,03,04,02,59,5.90
2008,03,04,03,00,6.10
2008,03,04,03,01,6.20
2008,03,04,03,02,6.80
2008,03,04,03,03,5.90
2008,03,04,03,04,7.80
2008,03,04,03,05,4.80
2008,03,04,03,06,5.60
2008,03,04,03,07,6.80
2008,03,04,03,08,6.40
2008,03,04,03,09,5.70
2008,03,04,03,10,5.80
2008,03,04,03,11,6.80
2008,03,04,03,12,5.30
2008,03,04,03,13,6.30
2008,03,04,03,14,6.60
2008,03,04,03,15,7.00
2008,03,04,03,16,6.60
2008,03,04,03,17,6.80
2008,03,04,03,18,6.60
2008,03,04,03,19,5.60
2008,03,04,03,20,5.60
2008,03,04,03,21,4.70
2008,03,04,03,22,6.60
2008,03,04,03,23,6.90
2008,03,04,03,24,5.90
2008,03,04,03,25,6.40
2008,03,04,03,26,5.00
2008,03,04,03,27,3.70
2008,03,04,03,28,3.40
2008,03,04,03,29,3.00
2008,03,04,03,30,3.50
2008,03,04,03,31,4.20
2008,03,04,03,32,3.40
2008,03,04,03,33,3.70
2008,03,04,03,34,5.10
2008,03,04,03,35,3.20
2008,03,04,03,36,5.50
2008,03,04,03,37,4.50
2008,03,04,03,38,6.90
2008,03,04,03,39,5.80
2008,03,04,03,40,6.40
2008,03,04,03,41,7.80
2008,03,04,03,42,7.00
2008,03,04,03,43,9.80
2008,03,04,03,44,11.00
2008,03,04,03,45,8.30
2008,03,04,03,46,8.10
2008,03,04,03,47,6.70
2008,03,04,03,48,8.50
2008,03,04,03,49,8.50
2008,03,04,03,50,9.70
2008,03,04,03,51,10.30
2008,03,04,03,52,9.90
2008,03,04,03,53,6.70
2008,03,04,03,54,6.80
2008,03,04,03,55,5.90
2008,03,04,03,56,6.80
2008,03,04,03,57,8.60
2008,03,04,03,58,6.90
2008,03,04,03,59,7.50
2008,03,04,04,00,7.00
2008,03,04,04,01,6.90
2008,03,04,04,02,6.00
2008,03,04,04,03,7.30
2008,03,04,04,04,7.90
2008,03,04,04,05,5.30
2008,03,04,04,06,5.80
2008,03,04,04,07,5.50
2008,03,04,04,08,5.10
2008,03,04,04,09,4.40
2008,03,04,04,10,3.00
2008,03,04,04,11,3.60
2008,03,04,04,12,1.20
2008,03,04,04,13,0.40
2008,03,04,04,14,0.40
2008,03,04,04,15,0.60
2008,03,04,04,16,1.00
2008,03,04,04,17,0.50
2008,03,04,04,18,0.10
2008,03,04,04,19,0.30
2008,03,04,04,20,0.30
2008,03,04,04,21,0.30
2008,03,04,04,22,0.50
2008,03,04,04,23,0.40
2008,03,04,04,24,0.50
2008,03,04,04,25,0.40
2008,03,04,04,26,0.90
2008,03,04,04,27,1.30
2008,03,04,04,28,0.60
2008,03,04,04,29,0.00
2008,03,04,04,30,0.00
2008,03,04,04,31,0.10
2008,03,04,04,32,0.00
2008,03,04,04,33,0.00
2008,03,04,04,34,0.00
2008,03,04,04,35,0.00
2008,03,04,04,36,0.00
2008,03,04,04,37,0.00
2008,03,04,04,38,0.00
2008,03,04,04,39,0.00
2008,03,04,04,40,0.00
2008,03,04,04,41,0.00
2008,03,04,04,42,0.00
2008,03,04,04,43,0.00
2008,03,04,04,44,0.00
2008,03,04,04,45,0.00
2008,03,04,04,46,0.00
2008,03,04,04,47,0.00
2008,03,04,04,48,0.00
2008,03,04,04,49,0.00
2008,03,04,04,50,0.00
2008,03,04,04,51,0.00
2008,03,04,04,52,0.00
2008,03,04,04,53,0.10
2008,03,04,04,54,0.10
2008,03,04,04,55,0.60
2008,03,04,04,56,0.40
2008,03,04,04,57,0.20
2008,03,04,04,58,0.30
2008,03,04,04,59,0.90
2008,03,04,05,00,0.40
2008,03,04,05,01,0.10
2008,03,04,05,02,0.10
2008,03,04,05,03,0.00
2008,03,04,05,04,0.60
2008,03,04,05,05,0.30
2008,03,04,05,06,0.10
2008,03,04,05,07,0.00
2008,03,04,05,08,0.00
2008,03,04,05,09,0.00
2008,03,04,05,10,0.00
2008,03,04,05,11,0.00
2008,03,04,05,12,0.00
2008,03,04,05,13,0.10
2008,03,04,05,14,0.20
2008,03,04,05,15,0.30
2008,03,04,05,16,0.20
2008,03,04,05,17,0.60
2008,03,04,05,18,0.80
2008,03,04,05,19,1.10
2008,03,04,05,20,0.30
2008,03,04,05,21,0.60
2008,03,04,05,22,0.10
2008,03,04,05,23,0.00
2008,03,04,05,24,0.00
2008,03,04,05,25,0.00
2008,03,04,05,26,0.00
2008,03,04,05,27,0.00
2008,03,04,05,28,0.00
2008,03,04,05,29,0.00
2008,03,04,05,30,0.00
2008,03,04,05,31,0.00
2008,03,04,05,32,0.00
2008,03,04,05,33,0.00
2008,03,04,05,34,0.00
2008,03,04,05,35,0.00
2008,03,04,05,36,0.00
2008,03,04,05,37,0.00
2008,03,04,05,38,0.00
2008,03,04,05,39,0.00
2008,03,04,05,40,0.00
2008,03,04,05,41,0.00
2008,03,04,05,42,0.00
2008,03,04,05,43,0.00
2008,03,04,05,44,0.00
2008,03,04,05,45,0.00
2008,03,04,05,46,0.00
2008,03,04,05,47,0.00
2008,03,04,05,48,0.00
2008,03,04,05,49,0.20
2008,03,04,05,50,0.00
2008,03,04,05,51,0.00
2008,03,04,05,52,0.00
2008,03,04,05,53,0.00
2008,03,04,05,54,0.00
2008,03,04,05,55,0.10
2008,03,04,05,56,0.00
2008,03,04,05,57,0.00
2008,03,04,05,58,0.00
2008,03,04,05,59,0.00
2008,03,04,06,00,0.00
2008,03,04,06,01,0.00
2008,03,04,06,02,0.00
2008,03,04,06,03,0.00
2008,03,04,06,04,0.00
2008,03,04,06,05,0.10
2008,03,04,06,06,0.00
2008,03,04,06,07,0.00
2008,03,04,06,08,0.00
2008,03,04,06,09,0.00
2008,03,04,06,10,0.00
2008,03,04,06,11,0.10
2008,03,04,06,12,0.00
2008,03,04,06,13,0.00
2008,03,04,06,14,0.00
2008,03,04,06,15,0.00
2008,03,04,06,16,0.00
2008,03,04,06,17,0.20
2008,03,04,06,18,0.20
2008,03,04,06,19,0.10
2008,03,04,06,20,0.00
2008,03,04,06,21,0.00
2008,03,04,06,22,0.00
2008,03,04,06,23,0.40
2008,03,04,06,24,0.20
2008,03,04,06,25,0.00
2008,03,04,06,26,0.00
2008,03,04,06,27,0.00
2008,03,04,06,28,0.00
2008,03,04,06,29,0.00
2008,03,04,06,30,0.00
2008,03,04,06,31,0.00
2008,03,04,06,32,0.00
2008,03,04,06,33,0.00
2008,03,04,06,34,0.00
2008,03,04,06,35,0.00
2008,03,04,06,36,0.00
2008,03,04,06,37,0.00
2008,03,04,06,38,0.00
2008,03,04,06,39,0.00
2008,03,04,06,40,0.00
2008,03,04,06,41,0.30
2008,03,04,06,42,0.20
2008,03,04,06,43,0.00
2008,03,04,06,44,0.00
2008,03,04,06,45,0.00
2008,03,04,06,46,0.00
2008,03,04,06,47,0.00
2008,03,04,06,48,0.00
2008,03,04,06,49,0.00
2008,03,04,06,50,0.00
2008,03,04,06,51,0.00
2008,03,04,06,52,0.00
2008,03,04,06,53,0.00
2008,03,04,06,54,0.00
2008,03,04,06,55,0.00
2008,03,04,06,56,0.00
2008,03,04,06,57,0.00
2008,03,04,06,58,0.00
2008,03,04,06,59,0.00
2008,03,04,07,00,0.00
2008,03,04,07,01,0.00
2008,03,04,07,02,0.00
2008,03,04,07,03,0.00
2008,03,04,07,04,0.00
2008,03,04,07,05,0.00
2008,03,04,07,06,0.00
2008,03,04,07,07,0.00
2008,03,04,07,08,0.00
2008,03,04,07,09,0.00
2008,03,04,07,10,0.00
2008,03,04,07,11,0.00
2008,03,04,07,12,0.40
2008,03,04,07,13,1.50
2008,03,04,07,14,0.10
2008,03,04,07,15,0.00
2008,03,04,07,16,0.00
2008,03,04,07,17,0.00
2008,03,04,07,18,0.00
2008,03,04,07,19,0.00
2008,03,04,07,20,0.00
2008,03,04,07,21,0.00
2008,03,04,07,22,0.00
2008,03,04,07,23,0.00
2008,03,04,07,24,0.00
2008,03,04,07,25,0.80
2008,03,04,07,26,0.20
2008,03,04,07,27,0.00
2008,03,04,07,28,0.10
2008,03,04,07,29,0.60
2008,03,04,07,30,0.70
2008,03,04,07,31,0.00
2008,03,04,07,32,0.00
2008,03,04,07,33,0.40
2008,03,04,07,34,0.50
2008,03,04,07,35,0.00
2008,03,04,07,36,0.00
2008,03,04,07,37,0.00
2008,03,04,07,38,0.00
2008,03,04,07,39,0.10
2008,03,04,07,40,1.00
2008,03,04,07,41,0.10
2008,03,04,07,42,0.20
2008,03,04,07,43,1.20
2008,03,04,07,44,0.60
2008,03,04,07,45,0.00
2008,03,04,07,46,0.40
2008,03,04,07,47,3.60
2008,03,04,07,48,0.20
2008,03,04,07,49,0.00
2008,03,04,07,50,0.10
2008,03,04,07,51,0.10
2008,03,04,07,52,0.00
2008,03,04,07,53,0.00
2008,03,04,07,54,0.00
2008,03,04,07,55,0.00
2008,03,04,07,56,0.00
2008,03,04,07,57,0.00
2008,03,04,07,58,0.00
2008,03,04,07,59,0.00
2008,03,04,08,00,0.00
2008,03,04,08,01,0.10
2008,03,04,08,02,0.00
2008,03,04,08,03,0.00
2008,03,04,08,04,0.00
2008,03,04,08,05,0.00
2008,03,04,08,06,0.00
2008,03,04,08,07,0.00
2008,03,04,08,08,0.00
2008,03,04,08,09,0.00
2008,03,04,08,10,0.00
2008,03,04,08,11,0.00
2008,03,04,08,12,0.00
2008,03,04,08,13,0.00
2008,03,04,08,14,0.00
2008,03,04,08,15,0.00
2008,03,04,08,16,0.00
2008,03,04,08,17,0.00
2008,03,04,08,18,0.10
2008,03,04,08,19,0.00
2008,03,04,08,20,0.00
2008,03,04,08,21,0.00
2008,03,04,08,22,0.00
2008,03,04,08,23,0.60
2008,03,04,08,24,0.00
2008,03,04,08,25,0.20
2008,03,04,08,26,0.10
2008,03,04,08,27,0.20
2008,03,04,08,28,0.10
2008,03,04,08,29,0.00
2008,03,04,08,30,0.00
2008,03,04,08,31,0.10
2008,03,04,08,32,0.30
2008,03,04,08,33,0.60
2008,03,04,08,34,0.00
2008,03,04,08,35,1.90
2008,03,04,08,36,3.90
2008,03,04,08,37,3.10
2008,03,04,08,38,1.90
2008,03,04,08,39,0.20
2008,03,04,08,40,1.00
2008,03,04,08,41,2.80
2008,03,04,08,42,3.80
2008,03,04,08,43,4.70
2008,03,04,08,44,5.20
2008,03,04,08,45,8.80
2008,03,04,08,46,5.00
2008,03,04,08,47,7.00
2008,03,04,08,48,5.70
2008,03,04,08,49,4.30
2008,03,04,08,50,0.90
2008,03,04,08,51,2.90
2008,03,04,08,52,6.10
2008,03,04,08,53,4.00
2008,03,04,08,54,5.30
2008,03,04,08,55,5.70
2008,03,04,08,56,6.80
2008,03,04,08,57,4.30
2008,03,04,08,58,6.60
2008,03,04,08,59,5.10
2008,03,04,09,00,5.60
2008,03,04,09,01,5.10
2008,03,04,09,02,4.80
2008,03,04,09,03,6.40
2008,03,04,09,04,2.70
2008,03,04,09,05,3.60
2008,03,04,09,06,2.90
2008,03,04,09,07,4.10
2008,03,04,09,08,4.00
2008,03,04,09,09,3.20
2008,03,04,09,10,3.20
2008,03,04,09,11,4.70
2008,03,04,09,12,9.30
2008,03,04,09,13,6.40
2008,03,04,09,14,9.40
2008,03,04,09,15,6.80
2008,03,04,09,16,5.40
2008,03,04,09,17,5.60
2008,03,04,09,18,6.70
2008,03,04,09,19,6.00
2008,03,04,09,20,6.00
2008,03,04,09,21,5.20
2008,03,04,09,22,4.30
2008,03,04,09,23,5.60
2008,03,04,09,24,4.60
2008,03,04,09,25,2.50
2008,03,04,09,26,2.60
2008,03,04,09,27,4.70
2008,03,04,09,28,8.90
2008,03,04,09,29,9.20
2008,03,04,09,30,7.70
2008,03,04,09,31,7.30
2008,03,04,09,32,4.00
2008,03,04,09,33,4.40
2008,03,04,09,34,4.80
2008,03,04,09,35,3.80
2008,03,04,09,36,4.00
2008,03,04,09,37,5.90
2008,03,04,09,38,5.40
2008,03,04,09,39,8.40
2008,03,04,09,40,9.90
2008,03,04,09,41,5.00
2008,03,04,09,42,4.60
2008,03,04,09,43,5.60
2008,03,04,09,44,4.80
2008,03,04,09,45,5.10
2008,03,04,09,46,0.40
2008,03,04,09,47,2.00
2008,03,04,09,48,1.90
2008,03,04,09,49,6.30
2008,03,04,09,50,5.50
2008,03,04,09,51,4.90
2008,03,04,09,52,5.30
2008,03,04,09,53,5.40
2008,03,04,09,54,8.00
2008,03,04,09,55,4.90
2008,03,04,09,56,5.80
2008,03,04,09,57,6.00
2008,03,04,09,58,4.90
2008,03,04,09,59,5.20
2008,03,04,10,00,4.90
2008,03,04,10,01,6.90
2008,03,04,10,02,5.50
2008,03,04,10,03,6.90
2008,03,04,10,04,12.30
2008,03,04,10,05,11.20
2008,03,04,10,06,9.30
2008,03,04,10,07,6.40
2008,03,04,10,08,8.80
2008,03,04,10,09,7.00
2008,03,04,10,10,10.40
2008,03,04,10,11,3.60
2008,03,04,10,12,5.50
2008,03,04,10,13,8.20
2008,03,04,10,14,8.10
2008,03,04,10,15,11.60
2008,03,04,10,16,7.40
2008,03,04,10,17,9.50
2008,03,04,10,18,11.30
2008,03,04,10,19,15.40
2008,03,04,10,20,13.20
2008,03,04,10,21,14.40
2008,03,04,10,22,11.40
2008,03,04,10,23,11.30
2008,03,04,10,24,11.40
2008,03,04,10,25,15.30
2008,03,04,10,26,12.60
2008,03,04,10,27,6.90
2008,03,04,10,28,9.20
2008,03,04,10,29,12.00
2008,03,04,10,30,9.10
2008,03,04,10,31,10.50
2008,03,04,10,32,9.60
2008,03,04,10,33,5.60
2008,03,04,10,34,7.90
2008,03,04,10,35,10.00
2008,03,04,10,36,9.50
2008,03,04,10,37,8.80
2008,03,04,10,38,12.60
2008,03,04,10,39,13.80
2008,03,04,10,40,8.60
2008,03,04,10,41,10.50
2008,03,04,10,42,12.00
2008,03,04,10,43,11.10
2008,03,04,10,44,7.40
2008,03,04,10,45,6.40
2008,03,04,10,46,9.30
2008,03,04,10,47,7.10
2008,03,04,10,48,7.20
2008,03,04,10,49,10.80
2008,03,04,10,50,3.70
2008,03,04,10,51,6.50
2008,03,04,10,52,8.80
2008,03,04,10,53,10.10
2008,03,04,10,54,12.00
2008,03,04,10,55,15.10
2008,03,04,10,56,15.80
2008,03,04,10,57,14.30
2008,03,04,10,58,15.90
2008,03,04,10,59,15.80
2008,03,04,11,00,14.00
2008,03,04,11,01,15.30
2008,03,04,11,02,16.00
2008,03,04,11,03,14.50
2008,03,04,11,04,17.10
2008,03,04,11,05,18.10
2008,03,04,11,06,17.40
2008,03,04,11,07,16.60
2008,03,04,11,08,14.70
2008,03,04,11,09,13.70
2008,03,04,11,10,16.60
2008,03,04,11,11,13.90
2008,03,04,11,12,16.00
2008,03,04,11,13,13.80
2008,03,04,11,14,12.70
2008,03,04,11,15,14.40
2008,03,04,11,16,15.80
2008,03,04,11,17,8.90
2008,03,04,11,18,16.70
2008,03,04,11,19,14.50
2008,03,04,11,20,12.30
2008,03,04,11,21,15.00
2008,03,04,11,22,15.50
2008,03,04,11,23,15.60
2008,03,04,11,24,10.60
2008,03,04,11,25,9.90
2008,03,04,11,26,10.60
2008,03,04,11,27,12.60
2008,03,04,11,28,12.30
2008,03,04,11,29,11.30
2008,03,04,11,30,9.90
2008,03,04,11,31,11.10
2008,03,04,11,32,17.80
2008,03,04,11,33,12.30
2008,03,04,11,34,15.40
2008,03,04,11,35,16.00
2008,03,04,11,36,19.80
2008,03,04,11,37,16.80
2008,03,04,11,38,17.10
2008,03,04,11,39,16.60
2008,03,04,11,40,13.70
2008,03,04,11,41,12.90
2008,03,04,11,42,11.00
2008,03,04,11,43,10.50
2008,03,04,11,44,10.20
2008,03,04,11,45,8.40
2008,03,04,11,46,11.90
2008,03,04,11,47,18.00
2008,03,04,11,48,15.30
2008,03,04,11,49,14.60
2008,03,04,11,50,15.80
2008,03,04,11,51,16.40
2008,03,04,11,52,13.80
2008,03,04,11,53,14.70
2008,03,04,11,54,10.00
2008,03,04,11,55,14.60
2008,03,04,11,56,18.90
2008,03,04,11,57,16.60
2008,03,04,11,58,18.10
2008,03,04,11,59,17.20
2008,03,04,12,00,15.40
2008,03,04,12,01,13.50
2008,03,04,12,02,11.30
2008,03,04,12,03,9.60
2008,03,04,12,04,11.30
2008,03,04,12,05,12.00
2008,03,04,12,06,15.60
2008,03,04,12,07,8.90
2008,03,04,12,08,7.50
2008,03,04,12,09,14.00
2008,03,04,12,10,18.00
2008,03,04,12,11,13.80
2008,03,04,12,12,11.60
2008,03,04,12,13,15.60
2008,03,04,12,14,11.40
2008,03,04,12,15,13.10
2008,03,04,12,16,11.30
2008,03,04,12,17,12.00
2008,03,04,12,18,8.60
2008,03,04,12,19,17.00
2008,03,04,12,20,10.90
2008,03,04,12,21,18.30
2008,03,04,12,22,18.20
2008,03,04,12,23,18.00
2008,03,04,12,24,16.70
2008,03,04,12,25,10.20
2008,03,04,12,26,11.00
2008,03,04,12,27,10.80
2008,03,04,12,28,11.40
2008,03,04,12,29,11.40
2008,03,04,12,30,10.30
2008,03,04,12,31,13.00
2008,03,04,12,32,13.20
2008,03,04,12,33,16.50
2008,03,04,12,34,16.20
2008,03,04,12,35,18.10
2008,03,04,12,36,16.20
2008,03,04,12,37,14.40
2008,03,04,12,38,14.30
2008,03,04,12,39,11.30
2008,03,04,12,40,15.10
2008,03,04,12,41,14.20
2008,03,04,12,42,14.70
2008,03,04,12,43,11.70
2008,03,04,12,44,11.70
2008,03,04,12,45,13.20
2008,03,04,12,46,10.70
2008,03,04,12,47,18.90
2008,03,04,12,48,17.10
2008,03,04,12,49,16.70
2008,03,04,12,50,15.70
2008,03,04,12,51,15.80
2008,03,04,12,52,12.80
2008,03,04,12,53,9.70
2008,03,04,12,54,7.20
2008,03,04,12,55,15.60
2008,03,04,12,56,17.10
2008,03,04,12,57,16.00
2008,03,04,12,58,13.30
2008,03,04,12,59,18.90
2008,03,04,13,00,17.00
2008,03,04,13,01,17.80
2008,03,04,13,02,17.10
2008,03,04,13,03,12.70
2008,03,04,13,04,17.30
2008,03,04,13,05,13.00
2008,03,04,13,06,16.70
2008,03,04,13,07,15.00
2008,03,04,13,08,15.10
2008,03,04,13,09,12.70
2008,03,04,13,10,15.80
2008,03,04,13,11,14.30
2008,03,04,13,12,10.30
2008,03,04,13,13,8.90
2008,03,04,13,14,9.20
2008,03,04,13,15,13.00
2008,03,04,13,16,12.80
2008,03,04,13,17,19.00
2008,03,04,13,18,13.30
2008,03,04,13,19,13.30
2008,03,04,13,20,10.40
2008,03,04,13,21,13.80
2008,03,04,13,22,13.60
2008,03,04,13,23,12.20
2008,03,04,13,24,15.20
2008,03,04,13,25,15.50
2008,03,04,13,26,18.30
2008,03,04,13,27,14.40
2008,03,04,13,28,14.70
2008,03,04,13,29,15.10
2008,03,04,13,30,14.60
2008,03,04,13,31,18.80
2008,03,04,13,32,15.60
2008,03,04,13,33,12.90
2008,03,04,13,34,11.70
2008,03,04,13,35,14.40
2008,03,04,13,36,16.80
2008,03,04,13,37,10.50
2008,03,04,13,38,12.80
2008,03,04,13,39,14.40
2008,03,04,13,40,17.10
2008,03,04,13,41,14.40
2008,03,04,13,42,15.60
2008,03,04,13,43,16.00
2008,03,04,13,44,12.50
2008,03,04,13,45,13.80
2008,03,04,13,46,17.50
2008,03,04,13,47,13.10
2008,03,04,13,48,14.10
2008,03,04,13,49,11.60
2008,03,04,13,50,15.70
2008,03,04,13,51,14.90
2008,03,04,13,52,16.40
2008,03,04,13,53,16.10
2008,03,04,13,54,12.40
2008,03,04,13,55,9.30
2008,03,04,13,56,10.80
2008,03,04,13,57,12.30
2008,03,04,13,58,12.00
2008,03,04,13,59,9.30
2008,03,04,14,00,13.60
2008,03,04,14,01,17.60
2008,03,04,14,02,15.80
2008,03,04,14,03,15.40
2008,03,04,14,04,18.30
2008,03,04,14,05,15.40
2008,03,04,14,06,11.70
2008,03,04,14,07,9.30
2008,03,04,14,08,10.20
2008,03,04,14,09,12.40
2008,03,04,14,10,16.70
2008,03,04,14,11,16.90
2008,03,04,14,12,15.10
2008,03,04,14,13,9.10
2008,03,04,14,14,12.00
2008,03,04,14,15,15.10
2008,03,04,14,16,9.60
2008,03,04,14,17,14.70
2008,03,04,14,18,11.20
2008,03,04,14,19,6.80
2008,03,04,14,20,6.00
2008,03,04,14,21,10.60
2008,03,04,14,22,12.00
2008,03,04,14,23,9.30
2008,03,04,14,24,5.40
2008,03,04,14,25,11.10
2008,03,04,14,26,13.80
2008,03,04,14,27,13.00
2008,03,04,14,28,9.60
2008,03,04,14,29,9.20
2008,03,04,14,30,9.50
2008,03,04,14,31,6.10
2008,03,04,14,32,8.00
2008,03,04,14,33,11.40
2008,03,04,14,34,11.10
2008,03,04,14,35,8.70
2008,03,04,14,36,7.00
2008,03,04,14,37,9.60
2008,03,04,14,38,8.90
2008,03,04,14,39,10.80
2008,03,04,14,40,6.80
2008,03,04,14,41,7.60
2008,03,04,14,42,10.40
2008,03,04,14,43,13.70
2008,03,04,14,44,14.10
2008,03,04,14,45,11.00
2008,03,04,14,46,10.40
2008,03,04,14,47,11.30
2008,03,04,14,48,12.20
2008,03,04,14,49,9.30
2008,03,04,14,50,8.60
2008,03,04,14,51,5.50
2008,03,04,14,52,8.70
2008,03,04,14,53,7.30
2008,03,04,14,54,7.10
2008,03,04,14,55,10.10
2008,03,04,14,56,8.70
2008,03,04,14,57,6.90
2008,03,04,14,58,11.40
2008,03,04,14,59,8.20
2008,03,04,15,00,4.60
2008,03,04,15,01,6.30
2008,03,04,15,02,7.00
2008,03,04,15,03,8.10
2008,03,04,15,04,10.90
2008,03,04,15,05,8.10
2008,03,04,15,06,6.40
2008,03,04,15,07,8.40
2008,03,04,15,08,6.50
2008,03,04,15,09,11.70
2008,03,04,15,10,11.50
2008,03,04,15,11,12.40
2008,03,04,15,12,9.50
2008,03,04,15,13,4.30
2008,03,04,15,14,7.30
2008,03,04,15,15,6.30
2008,03,04,15,16,7.00
2008,03,04,15,17,6.00
2008,03,04,15,18,5.50
2008,03,04,15,19,7.20
2008,03,04,15,20,7.20
2008,03,04,15,21,8.60
2008,03,04,15,22,11.40
2008,03,04,15,23,9.40
2008,03,04,15,24,8.60
2008,03,04,15,25,12.10
2008,03,04,15,26,6.50
2008,03,04,15,27,9.10
2008,03,04,15,28,5.30
2008,03,04,15,29,7.60
2008,03,04,15,30,8.90
2008,03,04,15,31,6.00
2008,03,04,15,32,9.80
2008,03,04,15,33,8.40
2008,03,04,15,34,10.80
2008,03,04,15,35,7.90
2008,03,04,15,36,6.30
2008,03,04,15,37,8.50
2008,03,04,15,38,8.10
2008,03,04,15,39,7.20
2008,03,04,15,40,9.30
2008,03,04,15,41,8.50
2008,03,04,15,42,4.10
2008,03,04,15,43,1.00
2008,03,04,15,44,4.30
2008,03,04,15,45,5.80
2008,03,04,15,46,6.30
2008,03,04,15,47,7.20
2008,03,04,15,48,4.40
2008,03,04,15,49,3.90
2008,03,04,15,50,5.30
2008,03,04,15,51,4.60
2008,03,04,15,52,2.20
2008,03,04,15,53,6.90
2008,03,04,15,54,8.00
2008,03,04,15,55,6.70
2008,03,04,15,56,3.60
2008,03,04,15,57,3.30
2008,03,04,15,58,4.40
2008,03,04,15,59,5.80
2008,03,04,16,00,4.10
2008,03,04,16,01,4.20
2008,03,04,16,02,6.50
2008,03,04,16,03,4.30
2008,03,04,16,04,10.50
2008,03,04,16,05,6.00
2008,03,04,16,06,6.00
2008,03,04,16,07,7.60
2008,03,04,16,08,8.10
2008,03,04,16,09,7.20
2008,03,04,16,10,7.80
2008,03,04,16,11,5.80
2008,03,04,16,12,5.60
2008,03,04,16,13,5.30
2008,03,04,16,14,5.10
2008,03,04,16,15,3.40
2008,03,04,16,16,4.60
2008,03,04,16,17,4.90
2008,03,04,16,18,3.90
2008,03,04,16,19,3.80
2008,03,04,16,20,8.10
2008,03,04,16,21,5.10
2008,03,04,16,22,4.30
2008,03,04,16,23,9.10
2008,03,04,16,24,5.60
2008,03,04,16,25,5.90
2008,03,04,16,26,4.80
2008,03,04,16,27,3.20
2008,03,04,16,28,6.90
2008,03,04,16,29,6.30
2008,03,04,16,30,5.60
2008,03,04,16,31,6.40
2008,03,04,16,32,6.80
2008,03,04,16,33,4.70
2008,03,04,16,34,3.10
2008,03,04,16,35,5.50
2008,03,04,16,36,4.80
2008,03,04,16,37,5.90
2008,03,04,16,38,5.40
2008,03,04,16,39,5.60
2008,03,04,16,40,5.90
2008,03,04,16,41,5.30
2008,03,04,16,42,5.70
2008,03,04,16,43,5.00
2008,03,04,16,44,5.40
2008,03,04,16,45,5.40
2008,03,04,16,46,3.60
2008,03,04,16,47,5.30
2008,03,04,16,48,5.60
2008,03,04,16,49,2.60
2008,03,04,16,50,1.50
2008,03,04,16,51,4.20
2008,03,04,16,52,2.80
2008,03,04,16,53,0.90
2008,03,04,16,54,1.50
2008,03,04,16,55,1.80
2008,03,04,16,56,4.10
2008,03,04,16,57,0.50
2008,03,04,16,58,2.70
2008,03,04,16,59,3.00
2008,03,04,17,00,0.20
2008,03,04,17,01,2.50
2008,03,04,17,02,2.80
2008,03,04,17,03,2.90
2008,03,04,17,04,0.80
2008,03,04,17,05,1.40
2008,03,04,17,06,3.70
2008,03,04,17,07,2.80
2008,03,04,17,08,4.20
2008,03,04,17,09,0.80
2008,03,04,17,10,2.40
2008,03,04,17,11,1.10
2008,03,04,17,12,2.30
2008,03,04,17,13,0.20
2008,03,04,17,14,0.80
2008,03,04,17,15,0.00
2008,03,04,17,16,1.40
2008,03,04,17,17,1.50
2008,03,04,17,18,1.50
2008,03,04,17,19,1.10
2008,03,04,17,20,1.00
2008,03,04,17,21,1.50
2008,03,04,17,22,1.80
2008,03,04,17,23,4.90
2008,03,04,17,24,10.10
2008,03,04,17,25,5.50
2008,03,04,17,26,6.50
2008,03,04,17,27,5.10
2008,03,04,17,28,6.00
2008,03,04,17,29,5.80
2008,03,04,17,30,2.10
2008,03,04,17,31,3.70
2008,03,04,17,32,3.50
2008,03,04,17,33,4.20
2008,03,04,17,34,5.80
2008,03,04,17,35,3.80
2008,03,04,17,36,4.70
2008,03,04,17,37,4.20
2008,03,04,17,38,4.40
2008,03,04,17,39,4.40
2008,03,04,17,40,4.20
2008,03,04,17,41,5.10
2008,03,04,17,42,4.20
2008,03,04,17,43,1.30
2008,03,04,17,44,3.00
2008,03,04,17,45,4.30
2008,03,04,17,46,3.30
2008,03,04,17,47,0.60
2008,03,04,17,48,1.00
2008,03,04,17,49,5.80
2008,03,04,17,50,4.20
2008,03,04,17,51,4.60
2008,03,04,17,52,5.00
2008,03,04,17,53,2.50
2008,03,04,17,54,3.00
2008,03,04,17,55,4.30